This is the latest recevied weather packets stored in our database for station/object EA1RCG-11. If no packets are shown the sender has not sent any weather packets the latest 1 day(s).
| Time | Temp. | Humidity | Pressure | Rain* | Wind** | Luminosity | Snow |
|---|---|---|---|---|---|---|---|
| 1777793668 | 17.22° C | 61% | 977.2 hPa | - | - | - | - |
| 1777791868 | 16.11° C | 61% | 977.3 hPa | - | - | - | - |
| 1777790068 | 13.89° C | 65% | 977.3 hPa | - | - | - | - |
| 1777788267 | 12.78° C | 66% | 977.2 hPa | - | - | - | - |
| 1777786467 | 11.67° C | 68% | 977.2 hPa | - | - | - | - |
| 1777784667 | 11.67° C | 69% | 977.2 hPa | - | - | - | - |
| 1777782866 | 11.67° C | 69% | 977.3 hPa | - | - | - | - |
| 1777781066 | 12.22° C | 69% | 977.3 hPa | - | - | - | - |
| 1777779266 | 12.22° C | 68% | 977.2 hPa | - | - | - | - |
| 1777777466 | 13.33° C | 67% | 977.1 hPa | - | - | - | - |
| 1777775666 | 13.33° C | 67% | 977.2 hPa | - | - | - | - |
| 1777773866 | 13.33° C | 67% | 977.3 hPa | - | - | - | - |
| 1777772066 | 13.33° C | 66% | 977.5 hPa | - | - | - | - |
| 1777770266 | 13.89° C | 66% | 977.8 hPa | - | - | - | - |
| 1777768466 | 13.89° C | 66% | 977.9 hPa | - | - | - | - |
| 1777766666 | 13.89° C | 66% | 978.3 hPa | - | - | - | - |
| 1777764865 | 13.89° C | 66% | 978.3 hPa | - | - | - | - |
| 1777763065 | 14.44° C | 66% | 978.4 hPa | - | - | - | - |
| 1777761265 | 14.44° C | 66% | 978.5 hPa | - | - | - | - |
| 1777759465 | 14.44° C | 65% | 978.7 hPa | - | - | - | - |
| 1777757665 | 14.44° C | 66% | 978.8 hPa | - | - | - | - |
| 1777755865 | 14.44° C | 66% | 978.8 hPa | - | - | - | - |
| 1777754065 | 14.44° C | 65% | 978.4 hPa | - | - | - | - |
| 1777752265 | 15° C | 65% | 978.5 hPa | - | - | - | - |
| 1777750465 | 16.11° C | 64% | 978.5 hPa | - | - | - | - |
* Rain since midnight (hover to see other rain measurements)
** Current wind speed in m/s (hover to see current wind gust speed)